Lexington Weather

Lexington, Massachusetts, USA

28°F
12/12/2019 4:22pm 
  • Lexington Conditions: Partly cloudy
  • Temperature: 27.7°F / -2.4°CColder 1.6°F than last hour.
  • Dew Point: 19.8°FDecreased 0.7°Fsince last hour.
  • Relative Humidity: 72%Increased 3.0% since last hour.
  • Wind: Wind from WSW WSW 1 mph, 10-min avg: 1 mph, gust: 2 mph
  • Barometer: 30.66 in Steady
  • Visibility: 10 miles
  • Snow Today: 0.0 in
  •   

Regional Weather Roundup
for Boston / Norton, MA

        
000
ASUS41 KBOX 101810
RWRBOX

REGIONAL WEATHER ROUNDUP
NATIONAL WEATHER SERVICE BOSTON/NORTON MA
100 PM EST TUE DEC 10 2019

NOTE:  "FAIR" INDICATES FEW OR NO CLOUDS BELOW 12,000 FEET WITH NO 
SIGNIFICANT WEATHER AND/OR OBSTRUCTIONS TO VISIBILITY.

MAZALL-101900-
EASTERN MASSACHUSETTS
  
CITY           SKY/WX    TMP DP  RH WIND       PRES   REMARKS
BOSTON         CLOUDY    62  51  67 SW16      29.70S                  
6HR MIN TEMP:  58; 6HR MAX TEMP:  63;                                

BEVERLY        PTSUNNY   60  52  74 SW18G24   29.68S                  
LAWRENCE       CLOUDY    57  50  77 SW13      29.69F                  
BEDFORD        CLOUDY    59  50  72 SW9G20    29.69S                  
BLUE HILL        N/A     57  51  80 SW16G26   29.70S                  
NORWOOD        CLOUDY    62  52  69 SW8       29.71S                  
MARSHFIELD     FAIR      61  55  82 SW12G25   29.70F                  
PLYMOUTH       CLOUDY    57  54  89 SW13G24   29.73S                  
TAUNTON        PTSUNNY   58  53  84 SW12G18   29.73F                  
NEW BEDFORD    CLOUDY    56  53  90 SW16G23   29.74F                  
$$

MAZALL-101900-
CAPE COD AND THE ISLANDS
  
CITY           SKY/WX    TMP DP  RH WIND       PRES   REMARKS
FALMOUTH       CLOUDY    57  55  94 SW22G36   29.76S                  
HYANNIS        CLOUDY    56  53  90 SW17G25   29.75F FOG              
CHATHAM        FOG       50  50 100 SW8G21    29.78F VSB 1/2          
PROVINCETOWN   FOG       53  52  96 SW23G31   29.74S VSB 1            
NANTUCKET      CLOUDY    52  50  93 S17       29.80F FOG              
MARTHAS VNYRD  CLOUDY    56  54  93 SW15G25   29.78F FOG              
$$
 
MAZALL-101900-
CENTRAL AND WESTERN MASSACHUSETTS
  
CITY           SKY/WX    TMP DP  RH WIND       PRES   REMARKS
WORCESTER      LGT RAIN  52  49  89 SW18G24   29.72S                  
6HR MIN TEMP:  51; 6HR MAX TEMP:  53; 6HR PCP: TRACE;                

FITCHBURG      NOT AVBL                                               
ORANGE         LGT RAIN  53  49  86 SW10      29.72R                  
SPRINGFIELD    CLOUDY    51  51 100 S7        29.73R                  
WESTFIELD      CLOUDY    51  48  89 SE6       29.73S                  
NORTH ADAMS    LGT RAIN  51  47  86 W10       29.70S                  
PITTSFIELD     LGT RAIN  50  47  89 SW6       29.71R FOG              
$$
 
RIZALL-101900-
RHODE ISLAND
  
CITY           SKY/WX    TMP DP  RH WIND       PRES   REMARKS
PROVIDENCE     CLOUDY    58  54  86 SW14      29.75F                  
6HR MIN TEMP:  56; 6HR MAX TEMP:  59; 6HR PCP: TRACE;                

NEWPORT        CLOUDY    55  52  89 SW12G24   29.75F FOG              
BLOCK ISLAND   CLOUDY    54  53  97 SW17      29.78F FOG              
SMITHFIELD     LGT RAIN  56  53  90 W10G17    29.73F                  
WESTERLY       CLOUDY    56  51  84 SW13      29.78S HAZE             
$$
 
CTZALL-101900-
CONNECTICUT
  
CITY           SKY/WX    TMP DP  RH WIND       PRES   REMARKS
BRADLEY INTL   LGT RAIN  51  49  92 SW6       29.74R                  
6HR MIN TEMP:  44; 6HR MAX TEMP:  51; 6HR PCP: TRACE;                

HARTFORD       CLOUDY    56  52  86 S8        29.75R                  
BRIDGEPORT     LGT RAIN  51  48  89 SW9       29.79R                  
DANBURY        LGT RAIN  54  50  86 SW8       29.77S                  
GROTON         CLOUDY    52  52 100 SW7       29.78R FOG              
NEW HAVEN      CLOUDY    53  49  86 SW8       29.78R                  
CHESTER        CLOUDY    55  54  94 SW8G16    29.78R FOG              
MERIDEN        CLOUDY    54  51  90 S6        29.76R                  
WILLIMANTIC    LGT RAIN  55  53  93 SW7       29.77R                  
OXFORD         CLOUDY    54  51  90 SW6       29.77R                  
$$

MEZ002-015-021-024-NHZ003-005-008-011-012-014-VTZ005-008-101900-
NORTHERN NEW ENGLAND
  
CITY           SKY/WX    TMP DP  RH WIND       PRES   REMARKS
PORTLAND ME    CLOUDY    58  49  72 SW13      29.63F                  
6HR MIN TEMP:  53; 6HR MAX TEMP:  58;                                

BANGOR ME      CLOUDY    53  49  86 S9        29.59F                  
CONCORD NH     CLOUDY    54  48  80 SW8       29.67S                  
MANCHESTER NH  CLOUDY    56  49  77 SW6       29.67S                  
NASHUA NH      LGT RAIN  55  52  89 VRB6      29.70R                  
PORTSMOUTH NH  CLOUDY    56  50  81 SW8       29.65F                  
JAFFREY NH     LGT RAIN  51  48  89 S8        29.70R FOG              
KEENE NH       CLOUDY    50  48  93 S3        29.69S                  
BURLINGTON VT  LGT RAIN  49  44  83 SW6       29.64R                  
MT. WASHINGTON LGT RAIN  32  32 100 W56G70      N/A  VSB 1/16WCI  14  
$$

NYZ052-076-101900-
EASTERN NEW YORK
  
CITY           SKY/WX    TMP DP  RH WIND       PRES   REMARKS
ALBANY         LGT RAIN  51  45  79 N14G20    29.72R                  
6HR MIN TEMP:  48; 6HR MAX TEMP:  52; 6HR PCP:  0.01;                

NEW YORK CITY  RAIN      56  50  80 SW13G25   29.80R                  
6HR MIN TEMP:  56; 6HR MAX TEMP:  58; 6HR PCP:  0.04;                

$$
 
ANZALL-101900-
MARINE OBSERVATIONS
  
STATION/POSITION TIME  TEMP    WIND        PRES    VSBY  WAVE
                       AIR SEA DIR/SP/G                  HT/PER
                 (UTC) (F)     (DEG/KT/KT) (MB)    (MI)  (FT/S)
BOSTON BUOY      1750   54 48  190/ 10/ 12 1004.7F         3/10
BUZZARDS BAY     NOT AVBL
NANTUCKET SOUND  1700                      1009.2F
MASS BAY-STELLWA 1704   50 46  210/ 10/ 12 1003.6   1 7/8  5/11
ISLE OF SHOALS   NOT AVBL
S OF BLOCK IS    1800      53                N/A          12/12
$$

......................KEY.........................
  SKY/WX - SKY CONDITION/PRESENT WEATHER
  TMP    - TEMPERATURE IN FAHRENHEIT
  DWPT   - DEWPOINT IN FAHRENHEIT
  RH     - RELATIVE HUMIDITY IN PERCENT
  WIND   - DIRECTION AND SPEED IN MPH
  PRES   - MEAN SEA LEVEL PRESSURE IN INCHES OF HG
  WCI    - WIND CHILL INDEX
  VSB    - VISIBILITY IN MILES
  HX     - HEAT INDEX
  TC     - TEMPERATURE IN CELSIUS
  VRB    - VARIABLE WIND DIRECTION
  N/A    - NOT AVAILABLE
  
      

Other recent Regional Weather Roundups

Thu Dec 12, 4:01pm

Thu Dec 12, 3:10pm

Thu Dec 12, 3:00pm

Thu Dec 12, 2:10pm

Thu Dec 12, 2:01pm

Thu Dec 12, 1:10pm

Thu Dec 12, 1:00pm

Thu Dec 12, 12:10pm

Thu Dec 12, 12:00pm

Thu Dec 12, 11:10am

Thu Dec 12, 11:00am

Thu Dec 12, 10:10am

Thu Dec 12, 8:10am

Thu Dec 12, 8:00am

Thu Dec 12, 7:10am

Thu Dec 12, 7:00am

Thu Dec 12, 6:10am

Thu Dec 12, 6:00am

Thu Dec 12, 5:10am

Thu Dec 12, 5:00am

Thu Dec 12, 4:10am

Thu Dec 12, 4:00am

Thu Dec 12, 3:10am

Thu Dec 12, 3:00am

Thu Dec 12, 2:10am

Thu Dec 12, 2:00am

Thu Dec 12, 1:10am

Thu Dec 12, 1:00am

Thu Dec 12, 12:10am

Thu Dec 12, 12:00am

Wed Dec 11, 11:10pm

Wed Dec 11, 11:00pm

Wed Dec 11, 10:10pm

Wed Dec 11, 10:00pm

Wed Dec 11, 9:10pm

Wed Dec 11, 9:00pm

Wed Dec 11, 8:10pm

Wed Dec 11, 8:00pm

Wed Dec 11, 7:10pm

Wed Dec 11, 7:00pm

Wed Dec 11, 6:10pm

Wed Dec 11, 6:00pm

Wed Dec 11, 5:10pm

Wed Dec 11, 5:01pm

Wed Dec 11, 4:10pm

Wed Dec 11, 4:00pm

Wed Dec 11, 3:10pm

Wed Dec 11, 3:01pm

Wed Dec 11, 2:10pm

Wed Dec 11, 2:00pm

Wed Dec 11, 1:10pm

Wed Dec 11, 1:00pm

Wed Dec 11, 12:10pm

Wed Dec 11, 12:00pm

Wed Dec 11, 11:10am

Wed Dec 11, 11:00am

Wed Dec 11, 10:10am

Wed Dec 11, 10:00am

Wed Dec 11, 9:10am

Wed Dec 11, 9:00am

Wed Dec 11, 8:10am

Wed Dec 11, 8:00am

Wed Dec 11, 7:10am

Wed Dec 11, 7:00am

Wed Dec 11, 6:10am

Wed Dec 11, 6:00am

Wed Dec 11, 5:10am

Wed Dec 11, 5:00am

Wed Dec 11, 4:10am

Wed Dec 11, 4:00am

Wed Dec 11, 3:10am

Wed Dec 11, 3:01am

Wed Dec 11, 2:10am

Wed Dec 11, 2:01am

Wed Dec 11, 1:10am

Wed Dec 11, 1:00am

Wed Dec 11, 12:10am

Wed Dec 11, 12:00am

Tue Dec 10, 11:10pm

Tue Dec 10, 11:00pm

Tue Dec 10, 10:10pm

Tue Dec 10, 10:00pm

Tue Dec 10, 9:10pm

Tue Dec 10, 9:01pm

Tue Dec 10, 8:10pm

Tue Dec 10, 8:00pm

Tue Dec 10, 7:10pm

Tue Dec 10, 7:01pm

Tue Dec 10, 6:10pm

Tue Dec 10, 6:01pm

Tue Dec 10, 5:10pm

Tue Dec 10, 5:00pm

Tue Dec 10, 4:10pm

Tue Dec 10, 4:01pm

Tue Dec 10, 3:10pm

Tue Dec 10, 3:01pm

Tue Dec 10, 2:10pm

Tue Dec 10, 2:01pm

Tue Dec 10, 1:00pm

Tue Dec 10, 12:10pm

Tue Dec 10, 12:00pm

Tue Dec 10, 11:10am

Tue Dec 10, 11:00am

Tue Dec 10, 10:10am

Tue Dec 10, 10:00am

Tue Dec 10, 9:10am

Tue Dec 10, 9:01am

Tue Dec 10, 8:10am

Tue Dec 10, 8:00am

Tue Dec 10, 7:10am

Tue Dec 10, 7:00am

Tue Dec 10, 6:10am

Tue Dec 10, 6:00am

Tue Dec 10, 5:10am

Tue Dec 10, 5:00am

Tue Dec 10, 4:10am

Tue Dec 10, 4:00am

Tue Dec 10, 3:10am

Tue Dec 10, 3:00am

Tue Dec 10, 2:10am

Tue Dec 10, 2:01am

Tue Dec 10, 1:10am

Tue Dec 10, 1:00am

Tue Dec 10, 12:10am

Tue Dec 10, 12:01am

Mon Dec 9, 11:10pm

Mon Dec 9, 11:01pm

Mon Dec 9, 10:10pm

Mon Dec 9, 10:00pm

Mon Dec 9, 9:10pm

Mon Dec 9, 9:01pm

Mon Dec 9, 8:10pm

Mon Dec 9, 8:01pm

Mon Dec 9, 7:10pm

Mon Dec 9, 7:00pm

Mon Dec 9, 6:10pm

Mon Dec 9, 6:00pm

Mon Dec 9, 5:10pm

Mon Dec 9, 5:01pm

Mon Dec 9, 4:10pm

Meta data:

ID: b3f8b7d5-87b1-4c67-9ff1-c8d46d973346
Link: https://api.weather.gov/products/b3f8b7d5-87b1-4c67-9ff1-c8d46d973346